Latest Coastal Weather Observations for Arlington Reef

IDQ60701

Issued at 8:21 am EST Tuesday 19 June 2018 (issued every 10 minutes, with the page automatically refreshed every 10 minutes)

About coastal observations | Map of coastal stations | Coastal observations for QLD | Marine services | Other Formats
Station Details ID: 200879 Name: ARLINGTON REEF Lat: -16.72 Lon: 146.11 Height: 0.0 m
Data from the previous 72 hours. | See also: Recent months at Arlington Reef
Date/Time
EST
Temp
°C
Wind Pressure Rain since
9am
mm
Weather Cloud Vis
km
Sea
Height
m
Swell
Dir  Spd
kts
Gust
kts
hPa Trend Height
m
Period
s
Dir
17/12:30pm - SSE 24 28 1017.1 - - - - - - - - -
17/12:00pm - SSE 26 29 1017.4 - - - - - - - - -
17/11:30am - S 23 27 1017.8 - - - - - - - - -
17/11:00am - S 24 28 1017.9 - - - - - - - - -
17/10:30am - S 23 28 1018.1 - - - - - - - - -
17/10:00am - S 22 27 1018.2 - - - - - - - - -
17/09:30am - S 22 26 1018.3 - - - - - - - - -
17/09:00am - S 22 26 1018.1 - - - - - - - - -
17/08:30am - S 22 26 1017.8 - - - - - - - - -
17/08:00am - S 22 26 1017.5 - - - - - - - - -
17/07:30am - S 21 25 1017.4 - - - - - - - - -
17/07:00am - S 21 24 1017.1 - - - - - - - - -
17/06:30am - S 19 23 1017.2 - - - - - - - - -
17/06:00am - S 19 23 1017.1 - - - - - - - - -
17/05:30am - S 18 23 1017.0 - - - - - - - - -
17/05:00am - S 18 21 1017.0 - - - - - - - - -
17/04:30am - S 19 22 1016.9 - - - - - - - - -
17/04:00am - S 16 20 1016.9 - - - - - - - - -
17/03:30am - S 17 21 1016.8 - - - - - - - - -
17/03:00am - SSE 18 22 1017.2 - - - - - - - - -
17/02:30am - SSE 18 21 1017.1 - - - - - - - - -
17/02:00am - SSE 18 21 1017.4 - - - - - - - - -
17/01:30am - SSE 17 21 1017.8 - - - - - - - - -
17/01:00am - SSE 18 21 1018.0 - - - - - - - - -
17/12:30am - SSE 17 21 1018.4 - - - - - - - - -
17/12:00am - SSE 17 20 1018.6 - - - - - - - - -
 
Date/Time
EST
Temp
°C
Wind Pressure Rain since
9am
mm
Weather Cloud Vis
km
Sea
Height
m
Swell
Dir  Spd
kts
Gust
kts
hPa Trend Height
m
Period
s
Dir
16/11:30pm - SSE 18 21 1018.5 - - - - - - - - -
16/11:00pm - SSE 18 21 1018.6 - - - - - - - - -
16/10:30pm - SSE 18 22 1018.5 - - - - - - - - -
16/10:00pm - SSE 19 22 1018.8 - - - - - - - - -
16/09:30pm - SSE 20 22 1018.6 - - - - - - - - -
16/09:00pm - SSE 20 23 1018.7 - - - - - - - - -
16/08:30pm - SSE 20 24 1018.6 - - - - - - - - -
16/08:00pm - SSE 19 23 1018.6 - - - - - - - - -
16/07:30pm - SSE 20 24 1018.5 - - - - - - - - -
16/07:00pm - SSE 19 23 1018.1 - - - - - - - - -
16/06:30pm - SSE 20 23 1017.7 - - - - - - - - -
16/06:00pm - S 21 24 1017.4 - - - - - - - - -
16/05:30pm - SSE 20 23 1017.1 - - - - - - - - -
16/05:00pm - S 21 23 1017.0 - - - - - - - - -
16/04:30pm - S 20 22 1016.8 - - - - - - - - -
16/04:00pm - S 20 24 1016.5 - - - - - - - - -
16/03:30pm - S 20 23 1016.6 - - - - - - - - -
16/03:00pm - S 19 22 1016.7 - - - - - - - - -
16/02:30pm - S 19 21 1016.9 - - - - - - - - -
16/02:00pm - S 20 23 1017.2 - - - - - - - - -
16/01:30pm - S 19 23 1017.5 - - - - - - - - -
16/01:00pm - S 20 23 1017.8 - - - - - - - - -
16/12:30pm - S 18 22 1018.4 - - - - - - - - -
16/12:00pm - S 18 20 1018.8 - - - - - - - - -
16/11:30am - S 18 21 1019.2 - - - - - - - - -
16/11:00am - S 18 22 1019.5 - - - - - - - - -
16/10:30am - S 16 20 1020.0 - - - - - - - - -
16/10:00am - S 17 20 1019.8 - - - - - - - - -
16/09:30am - S 17 21 1019.5 - - - - - - - - -
16/09:00am - S 18 20 1019.5 - - - - - - - - -
16/08:30am - S 17 20 1019.3 - - - - - - - - -

Other Formats:

Comma delimited format used in spreadsheet applications
http://www.bom.gov.au/fwo/IDQ60701/IDQ60701.94284.axf

JavaScript Object Notation format (JSON) in row-major order
http://www.bom.gov.au/fwo/IDQ60701/IDQ60701.94284.json